Tracking 35274 objects as of 10-Sep-2026
HD Live streaming from Space Station
objects crossing your sky now

COSMOS 757 DEB


COSMOS 757 DEB is no longer on orbit


NORAD ID: 8194
Int'l Code: 1975-078F
Launch date: August 27, 1975
Source: Commonwealth of Independent States (former USSR) (CIS)
Launch site: PLESETSK MISSILE AND SPACE COMPLEX (PKMTR)
Decay date: 1975-09-11

Note: This is SATELLITE DEBRIS
Your satellite tracking list
Your tracking list is empty




NASA's NSSDC Master Catalog

Two Line Element Set (TLE):
1 08194U 75078  F 75253.53102345  .06001442 +63045-1 +60538-3 0  9995
2 08194 062.8272 090.7186 0052016 058.8051 301.8146 16.33610729002253
Source of the keplerian elements: AFSPC